This demonstration page uses our WeatherBlox Daily Observations layout. Learn more.

Left ArrowRight Arrow

38.88101, -77.10428

Hourly Observations for January 1, 2022

Temp ( °F °C ) Dew Point ( °F °C ) Humidity (%) Winds ( mph kmh ) Pressure ( in mb ) Visibility ( mi km ) Precip ( " mm )
12:21 am 00:21 Cloudy 55 12.8 52 11.1 90 90 SSW 3 6 29.85 1011 10 16 0.00 0.00
12:47 am 00:47 Cloudy with Mist and Fog 55 13 52 11 88 88 SSW 6 9 29.86 1011 3 5 0.00 0.00
12:52 am 00:52 Cloudy with Mist and Fog 55 12.8 52 11.1 90 90 S 6 9 29.85 1011 4 6 0.00 0.00
1:52 am 01:52 Cloudy with Mist and Fog 54 12.2 52 11.1 93 93 S 8 13 29.85 1011 6 10 0.00 0.00
2:52 am 02:52 Cloudy with Mist and Fog 56 13.3 53 11.7 90 90 S 6 9 29.85 1011 6 10 0.00 0.00
3:52 am 03:52 Cloudy with Mist and Fog 56 13.3 53 11.7 90 90 S 7 11 29.83 1010 6 10 0.00 0.00
4:46 am 04:46 Cloudy with Fog 55 13 54 12 94 94 S 7 11 29.82 1010 4 6 0.00 0.00
4:52 am 04:52 Cloudy with Fog 55 12.8 53 11.7 93 93 S 7 11 29.82 1010 4 6 0.00 0.00
5:37 am 05:37 Cloudy with Mist and Fog 57 13.9 54 12.2 90 90 SSW 5 7 29.82 1010 4 6 0.00 0.00
5:52 am 05:52 Cloudy with Mist and Fog 57 13.9 54 12.2 90 90 S 6 9 29.82 1010 5 8 0.00 0.00
6:52 am 06:52 Cloudy with Drizzle 57 13.9 54 12.2 90 90 S 5 7 29.83 1010 5 8 0.01 0.25
7:52 am 07:52 Cloudy with Light Rain 56 13.3 54 12.2 93 93 S 8 13 29.84 1011 4 6 0.03 0.76
7:59 am 07:59 Cloudy with Light Rain 56 13.3 54 12.2 93 93 S 7 11 29.84 1011 4 6 0.01 0.25
8:20 am 08:20 Cloudy with Light Rain 57 13.9 54 12.2 90 90 S 7 11 29.84 1011 3 4 0.02 0.51
8:32 am 08:32 Cloudy with Light Rain 57 13.9 55 12.8 93 93 S 7 11 29.85 1011 3 4 0.03 0.76
8:40 am 08:40 Cloudy with Light Rain 57 13.9 54 12.2 90 90 S 8 13 29.84 1011 1 1 0.04 1.02
8:52 am 08:52 Cloudy with Light Rain 56 13.3 54 12.2 93 93 S 6 9 29.84 1011 2 3 0.06 1.52
9:52 am 09:52 Cloudy with Light Rain 58 14.4 56 13.3 93 93 S 3 6 29.84 1010 2 3 0.06 1.52
10:49 am 10:49 Cloudy with Light Rain 57 14 55 13 94 94 S 5 7 29.81 1009 2 3 0.10 2.54
10:52 am 10:52 Cloudy with Light Rain 59 15 56 13.3 90 90 SSW 3 6 29.81 1010 2 3 0.10 2.54
11:34 am 11:34 Cloudy with Light Rain 58 14.4 56 13.3 93 93 Calm 29.78 1008 1 2 0.07 1.78
11:52 am 11:52 Cloudy with Light Rain 58 14.4 56 13.3 93 93 Calm 29.77 1008 1 2 0.08 2.03
12:32 pm 12:32 Cloudy with Light Rain 59 15 57 13.9 93 93 Calm 29.74 1007 1 2 0.01 0.25
12:52 pm 12:52 Cloudy with Light Rain 59 15 57 13.9 93 93 Calm 29.73 1007 2 3 0.01 0.25
1:52 pm 13:52 Cloudy with Mist and Fog 61 16.1 59 15 93 93 Calm 29.70 1006 6 10 0.00 0.00
2:05 pm 14:05 Cloudy 61 16.1 58 14.4 90 90 Calm 29.71 1006 9 14 0.00 0.00
2:14 pm 14:14 Cloudy 62 16.7 59 15 90 90 Calm 29.70 1006 10 16 0.00 0.00
2:52 pm 14:52 Cloudy with Mist and Fog 60 15.6 58 14.4 93 93 NE 3 6 29.69 1005 6 10 0.00 0.00
3:52 pm 15:52 Cloudy 61 16.1 58 14.4 90 90 Calm 29.67 1005 10 16 0.00 0.00
3:55 pm 15:55 Cloudy with Mist and Fog 60 15.6 57 13.9 90 90 ESE 3 6 29.67 1005 2 3 0.00 0.00
3:57 pm 15:57 Cloudy 59 15 57 13.9 93 93 Calm 29.67 1005 8 13 0.00 0.00
4:33 pm 16:33 Cloudy 59 15 57 13.9 93 93 E 3 6 29.66 1004 8 13 0.00 0.00
4:52 pm 16:52 Cloudy 60 15.6 57 13.9 90 90 S 3 6 29.65 1004 8 13 0.00 0.00
5:01 pm 17:01 Cloudy 60 15.6 58 14.4 93 93 S 7 11 29.65 1004 8 13 0.00 0.00
5:48 pm 17:48 Cloudy 63 17 59 15 88 88 S 5 7 29.64 1004 10 16 0.00 0.00
5:52 pm 17:52 Cloudy 61 16.1 59 15 93 93 S 5 7 29.64 1004 10 16 0.00 0.00
6:39 pm 18:39 Cloudy 60 15.6 57 13.9 90 90 Calm 29.62 1003 8 13 0.00 0.00
6:52 pm 18:52 Cloudy 60 15.6 58 14.4 93 93 Calm 29.62 1003 8 13 0.00 0.00
7:46 pm 19:46 Cloudy 61 16 59 15 94 94 S 5 7 29.59 1002 7 11 0.00 0.00
7:52 pm 19:52 Cloudy 61 16.1 59 15 93 93 S 8 13 29.58 1002 8 13 0.00 0.00
8:26 pm 20:26 Cloudy 61 16.1 59 15 93 93 S 9 15 29.55 1001 7 11 0.00 0.00
8:52 pm 20:52 Cloudy 63 17.2 60 15.6 90 90 SSW 10 17 29.55 1001 10 16 0.00 0.00
9:52 pm 21:52 Cloudy 64 17.8 59 15 84 84 NNW 10 17 29.59 1002 10 16 0.00 0.00
9:59 pm 21:59 Cloudy 63 17.2 59 15 87 87 NNW 13 20 29.59 1002 10 16 0.00 0.00
10:17 pm 22:17 Cloudy with Light Rain 62 16.7 58 14.4 86 86 NNW 8 13 29.61 1003 4 6 0.04 1.02
10:19 pm 22:19 Cloudy with Light Rain 62 16.7 58 14.4 86 86 NNW 12 19 29.61 1003 8 13 0.04 1.02
10:48 pm 22:48 Cloudy with Light Rain 57 14 54 12 88 88 NE 5 7 29.60 1002 8 13 0.09 2.29
10:52 pm 22:52 Cloudy with Light Rain 57 13.9 55 12.8 93 93 Calm 29.60 1002 8 13 0.09 2.29
11:37 pm 23:37 Cloudy with Light Rain 61 16.1 58 14.4 90 90 W 7 11 29.63 1003 10 16 0.00 0.00
11:47 pm 23:47 Cloudy with Light Rain 61 16 57 14 88 88 WNW 7 11 29.62 1003 10 16 0.00 0.00
11:52 pm 23:52 Cloudy with Light Rain 61 16.1 57 13.9 87 87 WNW 6 9 29.61 1003 10 16 0.00 0.00
11:59 pm 23:59 Cloudy with Light Rain 60 15.6 57 13.9 90 90 NW 8 13 29.61 1003 10 16 0.00 0.00

Powered by AerisWeather